Location: Alladorf
(49.9620°N, 11.3790°E)
Time: 19:55:43
(UTC+00:00)

FALCON 9 DEB - Pass Details

Date: 29 November 2020
Orbit: 376 x 396 km, 53.0° (Epoch: 24 January)

Event Time Altitude Azimuth Distance (km) Brightness Sun altitude
Exits shadow 05:18:29 21° 247° (WSW) 952 4.4 -13.9°
Maximum altitude 05:20:29 89° 171° (S) 403 2.9 -13.6°
Drops below altitude 10° 05:23:45 10° 69° (ENE) 1,454 6.6 -13.1°
Sets 05:25:50 0° 69° (ENE) 2,318 7.7 -12.8°
